Time,TemperatureF,DewpointF,PressureIn,WindDirection,WindDirectionDegrees,WindSpeedMPH,WindSpeedGustMPH,Humidity,HourlyPrecipIn,Conditions,Clouds,dailyrainin,SolarRadiationWatts/m^2,SoftwareType,DateUTC
2013-07-11 00:01:00,66.0,64.0,29.88,SSE,154,3.0,6.0,94,0.00,,,0.00,0.000000,,2013-07-11 07:01:00,
2013-07-11 00:12:00,66.0,64.0,29.88,SE,136,2.0,5.0,94,0.00,,,0.00,0.000000,,2013-07-11 07:12:00,
2013-07-11 00:22:00,66.0,64.0,29.88,SE,136,2.0,5.0,94,0.00,,,0.00,0.000000,,2013-07-11 07:22:00,
2013-07-11 00:32:00,66.0,64.0,29.88,SE,143,1.0,4.0,94,0.00,,,0.00,0.000000,,2013-07-11 07:32:00,
2013-07-11 00:45:00,66.0,64.0,29.88,South,173,1.0,4.0,93,0.00,,,0.00,0.000000,,2013-07-11 07:45:00,
2013-07-11 00:53:00,66.0,64.0,29.88,South,173,1.0,4.0,93,0.00,,,0.00,0.000000,,2013-07-11 07:53:00,
2013-07-11 01:02:00,66.0,64.0,29.88,SSE,159,2.0,5.0,92,0.00,,,0.00,0.000000,,2013-07-11 08:02:00,
2013-07-11 01:11:00,66.0,64.0,29.88,ESE,107,1.0,4.0,92,0.00,,,0.00,0.000000,,2013-07-11 08:11:00,
2013-07-11 01:22:00,66.0,64.0,29.88,ESE,107,1.0,4.0,92,0.00,,,0.00,0.000000,,2013-07-11 08:22:00,
2013-07-11 01:33:00,66.0,64.0,29.88,SE,131,0.0,4.0,92,0.00,,,0.00,0.000000,,2013-07-11 08:33:00,
2013-07-11 01:42:00,66.0,64.0,29.88,SSE,163,1.0,3.0,92,0.00,,,0.00,0.000000,,2013-07-11 08:42:00,
2013-07-11 01:53:00,66.0,64.0,29.88,SSE,163,1.0,3.0,92,0.00,,,0.00,0.000000,,2013-07-11 08:53:00,
2013-07-11 02:02:00,66.0,64.0,29.88,SSE,163,0.0,2.0,92,0.00,,,0.00,0.000000,,2013-07-11 09:02:00,
2013-07-11 02:12:00,66.0,64.0,29.87,SSE,162,1.0,2.0,93,0.00,,,0.00,0.000000,,2013-07-11 09:12:00,
2013-07-11 02:21:00,66.0,64.0,29.87,SSE,162,1.0,2.0,93,0.00,,,0.00,0.000000,,2013-07-11 09:21:00,
2013-07-11 02:33:00,66.0,64.0,29.87,SSE,162,0.0,2.0,93,0.00,,,0.00,0.000000,,2013-07-11 09:33:00,
2013-07-11 02:43:00,65.0,63.0,29.87,SSE,162,0.0,1.0,92,0.00,,,0.00,0.000000,,2013-07-11 09:43:00,
2013-07-11 02:53:00,65.0,63.0,29.87,SSE,162,0.0,1.0,92,0.00,,,0.00,0.000000,,2013-07-11 09:53:00,
2013-07-11 03:01:00,65.0,62.0,29.86,SSE,162,0.0,1.0,91,0.00,,,0.00,0.000000,,2013-07-11 10:01:00,
2013-07-11 03:11:00,65.0,63.0,29.86,SSE,162,0.0,1.0,92,0.00,,,0.00,0.000000,,2013-07-11 10:11:00,
2013-07-11 03:21:00,65.0,63.0,29.86,SSE,162,0.0,1.0,92,0.00,,,0.00,0.000000,,2013-07-11 10:21:00,
2013-07-11 03:33:00,65.0,63.0,29.86,WNW,284,0.0,3.0,92,0.00,,,0.00,0.000000,,2013-07-11 10:33:00,
2013-07-11 03:42:00,65.0,63.0,29.86,NE,38,0.0,3.0,93,0.00,,,0.00,0.000000,,2013-07-11 10:42:00,
2013-07-11 03:52:00,65.0,63.0,29.86,NE,38,0.0,3.0,93,0.00,,,0.00,0.000000,,2013-07-11 10:52:00,
2013-07-11 04:01:00,65.0,63.0,29.86,West,269,0.0,1.0,93,0.00,,,0.00,0.000000,,2013-07-11 11:01:00,
2013-07-11 04:11:00,65.0,63.0,29.86,West,269,0.0,0.0,93,0.00,,,0.00,0.000000,,2013-07-11 11:11:00,
2013-07-11 04:22:00,65.0,63.0,29.86,West,269,0.0,0.0,93,0.00,,,0.00,0.000000,,2013-07-11 11:22:00,
2013-07-11 04:32:00,65.0,63.0,29.86,West,269,0.0,1.0,93,0.00,,,0.00,0.000000,,2013-07-11 11:32:00,
2013-07-11 04:43:00,65.0,63.0,29.86,West,269,0.0,1.0,93,0.00,,,0.00,0.000000,,2013-07-11 11:43:00,
2013-07-11 04:53:00,65.0,63.0,29.86,West,269,0.0,1.0,93,0.00,,,0.00,0.000000,,2013-07-11 11:53:00,
2013-07-11 05:01:00,65.0,63.0,29.85,West,269,0.0,0.0,93,0.00,,,0.00,0.000000,,2013-07-11 12:01:00,
2013-07-11 05:11:00,65.0,63.0,29.86,West,269,0.0,1.0,93,0.00,,,0.00,0.000000,,2013-07-11 12:11:00,
2013-07-11 05:22:00,65.0,63.0,29.86,West,269,0.0,1.0,93,0.00,,,0.00,0.000000,,2013-07-11 12:22:00,
2013-07-11 05:33:00,65.0,63.0,29.87,West,269,0.0,1.0,94,0.00,,,0.00,0.000000,,2013-07-11 12:33:00,
2013-07-11 05:42:00,65.0,63.0,29.88,SW,221,1.0,4.0,94,0.00,,,0.00,0.000000,,2013-07-11 12:42:00,
2013-07-11 05:54:00,65.0,63.0,29.88,SW,221,1.0,4.0,94,0.00,,,0.00,0.000000,,2013-07-11 12:54:00,
2013-07-11 06:01:00,65.0,63.0,29.88,South,184,1.0,5.0,94,0.00,,,0.00,0.000000,,2013-07-11 13:01:00,
2013-07-11 06:11:00,65.0,63.0,29.88,South,184,1.0,5.0,94,0.00,,,0.00,0.000000,,2013-07-11 13:11:00,
2013-07-11 06:22:00,66.0,64.0,29.89,South,184,1.0,3.0,94,0.00,,,0.00,0.000000,,2013-07-11 13:22:00,
2013-07-11 06:33:00,66.0,65.0,29.88,South,180,0.0,2.0,95,0.00,,,0.00,7.000000,,2013-07-11 13:33:00,
2013-07-11 06:43:00,66.0,65.0,29.89,South,180,0.0,3.0,95,0.00,,,0.00,9.000000,,2013-07-11 13:43:00,
2013-07-11 06:53:00,66.0,65.0,29.89,South,180,0.0,3.0,95,0.00,,,0.00,9.000000,,2013-07-11 13:53:00,
2013-07-11 07:03:00,66.0,65.0,29.90,South,180,0.0,1.0,95,0.00,,,0.00,21.000000,,2013-07-11 14:03:00,
2013-07-11 07:11:00,66.0,65.0,29.90,South,180,0.0,1.0,95,0.00,,,0.00,21.000000,,2013-07-11 14:11:00,
2013-07-11 07:22:00,66.0,65.0,29.89,South,180,0.0,1.0,95,0.00,,,0.00,28.000000,,2013-07-11 14:22:00,
2013-07-11 07:34:00,66.0,65.0,29.90,South,180,1.0,2.0,95,0.00,,,0.00,28.000000,,2013-07-11 14:34:00,
2013-07-11 07:53:00,66.0,65.0,29.90,East,98,1.0,3.0,95,0.00,,,0.00,26.000000,,2013-07-11 14:53:00,
2013-07-11 08:11:00,66.0,65.0,29.90,East,100,1.0,3.0,95,0.00,,,0.00,25.000000,,2013-07-11 15:11:00,
2013-07-11 08:22:00,66.0,65.0,29.90,East,100,1.0,3.0,95,0.00,,,0.00,25.000000,,2013-07-11 15:22:00,
2013-07-11 08:34:00,66.0,65.0,29.90,SSW,205,0.0,2.0,95,0.00,,,0.00,25.000000,,2013-07-11 15:34:00,
2013-07-11 08:44:00,66.0,65.0,29.91,SW,214,1.0,3.0,95,0.00,,,0.00,28.000000,,2013-07-11 15:44:00,
2013-07-11 08:54:00,66.0,65.0,29.91,SW,214,1.0,3.0,95,0.00,,,0.00,28.000000,,2013-07-11 15:54:00,
2013-07-11 09:03:00,66.0,65.0,29.91,SE,139,1.0,3.0,95,0.00,,,0.00,44.000000,,2013-07-11 16:03:00,
2013-07-11 09:11:00,66.0,65.0,29.91,SE,132,1.0,4.0,95,0.00,,,0.00,88.000000,,2013-07-11 16:11:00,
2013-07-11 09:22:00,66.0,65.0,29.91,SE,132,1.0,4.0,95,0.00,,,0.00,88.000000,,2013-07-11 16:22:00,
2013-07-11 09:33:00,67.0,65.0,29.92,SE,135,3.0,7.0,94,0.00,,,0.00,109.000000,,2013-07-11 16:33:00,
2013-07-11 09:54:00,67.0,65.0,29.91,East,92,2.0,6.0,93,0.00,,,0.00,116.000000,,2013-07-11 16:54:00,
2013-07-11 10:02:00,68.0,65.0,29.91,ESE,104,2.0,7.0,91,0.00,,,0.00,135.000000,,2013-07-11 17:02:00,
2013-07-11 10:12:00,69.0,65.0,29.91,East,99,1.0,5.0,88,0.00,,,0.00,251.000000,,2013-07-11 17:12:00,
2013-07-11 10:34:00,71.0,67.0,29.91,SSE,158,1.0,3.0,86,0.00,,,0.00,292.000000,,2013-07-11 17:34:00,
2013-07-11 10:52:00,71.0,66.0,29.91,SSE,161,0.0,4.0,85,0.00,,,0.00,255.000000,,2013-07-11 17:52:00,
2013-07-11 11:03:00,72.0,66.0,29.91,SSE,163,0.0,1.0,82,0.00,,,0.00,190.000000,,2013-07-11 18:03:00,
2013-07-11 11:22:00,72.0,67.0,29.91,West,269,2.0,7.0,83,0.00,,,0.00,151.000000,,2013-07-11 18:22:00,
2013-07-11 11:33:00,70.0,66.0,29.92,SSW,205,1.0,5.0,86,0.00,,,0.00,105.000000,,2013-07-11 18:33:00,
2013-07-11 11:44:00,69.0,66.0,29.91,South,185,2.0,5.0,89,0.00,,,0.00,100.000000,,2013-07-11 18:44:00,
2013-07-11 11:53:00,69.0,66.0,29.91,South,185,2.0,5.0,89,0.00,,,0.00,100.000000,,2013-07-11 18:53:00,
2013-07-11 12:02:00,70.0,66.0,29.92,WSW,256,1.0,5.0,88,0.00,,,0.00,111.000000,,2013-07-11 19:02:00,
2013-07-11 12:11:00,70.0,66.0,29.92,WSW,256,1.0,5.0,88,0.00,,,0.00,111.000000,,2013-07-11 19:11:00,
2013-07-11 12:22:00,70.0,66.0,29.92,WSW,257,3.0,6.0,88,0.00,,,0.00,125.000000,,2013-07-11 19:22:00,
2013-07-11 12:35:00,69.0,66.0,29.92,SW,227,1.0,4.0,91,0.00,,,0.00,144.000000,,2013-07-11 19:35:00,
2013-07-11 12:43:00,70.0,67.0,29.92,West,273,1.0,4.0,90,0.00,,,0.00,174.000000,,2013-07-11 19:43:00,
2013-07-11 12:52:00,70.0,67.0,29.92,West,273,1.0,4.0,90,0.00,,,0.00,174.000000,,2013-07-11 19:52:00,
2013-07-11 13:03:00,70.0,67.0,29.91,South,187,2.0,6.0,89,0.00,,,0.00,306.000000,,2013-07-11 20:03:00,
2013-07-11 13:11:00,70.0,67.0,29.91,South,187,2.0,6.0,89,0.00,,,0.00,306.000000,,2013-07-11 20:11:00,
2013-07-11 13:34:00,72.0,67.0,29.91,SSW,200,2.0,6.0,85,0.00,,,0.00,431.000000,,2013-07-11 20:34:00,
2013-07-11 13:43:00,73.0,68.0,29.90,West,265,4.0,8.0,83,0.00,,,0.00,397.000000,,2013-07-11 20:43:00,
2013-07-11 13:52:00,73.0,68.0,29.90,West,265,4.0,8.0,83,0.00,,,0.00,397.000000,,2013-07-11 20:52:00,
2013-07-11 14:02:00,74.0,67.0,29.90,West,277,2.0,7.0,80,0.00,,,0.00,318.000000,,2013-07-11 21:02:00,
2013-07-11 14:11:00,74.0,67.0,29.90,West,277,2.0,7.0,80,0.00,,,0.00,318.000000,,2013-07-11 21:11:00,
2013-07-11 14:22:00,72.0,67.0,29.89,West,273,2.0,8.0,83,0.00,,,0.00,262.000000,,2013-07-11 21:22:00,
2013-07-11 14:33:00,72.0,67.0,29.89,SW,217,4.0,7.0,84,0.00,,,0.00,236.000000,,2013-07-11 21:33:00,
2013-07-11 14:52:00,71.0,66.0,29.89,WSW,243,4.0,8.0,85,0.00,,,0.00,267.000000,,2013-07-11 21:52:00,
2013-07-11 15:03:00,72.0,67.0,29.89,West,269,2.0,5.0,84,0.00,,,0.00,251.000000,,2013-07-11 22:03:00,
2013-07-11 15:11:00,72.0,66.0,29.88,South,188,2.0,5.0,82,0.00,,,0.00,304.000000,,2013-07-11 22:11:00,
2013-07-11 15:22:00,72.0,66.0,29.88,South,188,2.0,5.0,82,0.00,,,0.00,304.000000,,2013-07-11 22:22:00,
2013-07-11 15:32:00,72.0,67.0,29.88,WNW,300,1.0,7.0,83,0.00,,,0.00,294.000000,,2013-07-11 22:32:00,
2013-07-11 15:43:00,71.0,66.0,29.88,South,182,3.0,6.0,83,0.00,,,0.00,234.000000,,2013-07-11 22:43:00,
2013-07-11 16:01:00,70.0,66.0,29.88,WSW,242,3.0,6.0,86,0.00,,,0.00,197.000000,,2013-07-11 23:01:00,
2013-07-11 16:11:00,70.0,66.0,29.88,WSW,242,3.0,6.0,86,0.00,,,0.00,197.000000,,2013-07-11 23:11:00,
2013-07-11 16:22:00,70.0,66.0,29.88,West,263,3.0,6.0,88,0.00,,,0.00,192.000000,,2013-07-11 23:22:00,
2013-07-11 16:33:00,71.0,66.0,29.87,WSW,240,2.0,6.0,85,0.00,,,0.00,272.000000,,2013-07-11 23:33:00,
2013-07-11 17:03:00,71.0,66.0,29.86,SW,221,2.0,5.0,85,0.00,,,0.00,188.000000,,2013-07-12 00:03:00,
2013-07-11 17:11:00,70.0,66.0,29.86,SW,221,0.0,6.0,86,0.00,,,0.00,148.000000,,2013-07-12 00:11:00,
2013-07-11 17:34:00,70.0,66.0,29.86,SSW,196,1.0,4.0,86,0.00,,,0.00,142.000000,,2013-07-12 00:34:00,
2013-07-11 17:52:00,70.0,66.0,29.85,SSW,193,1.0,5.0,86,0.00,,,0.00,134.000000,,2013-07-12 00:52:00,
2013-07-11 18:02:00,70.0,66.0,29.85,SW,219,2.0,4.0,86,0.00,,,0.00,137.000000,,2013-07-12 01:02:00,
2013-07-11 18:11:00,70.0,66.0,29.85,SW,219,2.0,4.0,86,0.00,,,0.00,137.000000,,2013-07-12 01:11:00,
2013-07-11 18:22:00,70.0,66.0,29.85,SSW,204,1.0,4.0,86,0.00,,,0.00,111.000000,,2013-07-12 01:22:00,
2013-07-11 18:33:00,70.0,65.0,29.85,South,175,1.0,4.0,84,0.00,,,0.00,93.000000,,2013-07-12 01:33:00,
2013-07-11 18:43:00,70.0,66.0,29.85,SW,224,1.0,3.0,86,0.00,,,0.00,83.000000,,2013-07-12 01:43:00,
2013-07-11 18:53:00,70.0,66.0,29.85,SW,224,1.0,3.0,86,0.00,,,0.00,83.000000,,2013-07-12 01:53:00,
2013-07-11 19:02:00,70.0,66.0,29.85,SSW,204,1.0,3.0,86,0.00,,,0.00,62.000000,,2013-07-12 02:02:00,
2013-07-11 19:11:00,69.0,65.0,29.85,SSW,204,0.0,3.0,87,0.00,,,0.00,40.000000,,2013-07-12 02:11:00,
2013-07-11 19:23:00,69.0,65.0,29.85,SSW,204,0.0,3.0,87,0.00,,,0.00,40.000000,,2013-07-12 02:23:00,
2013-07-11 19:43:00,68.0,65.0,29.85,South,183,0.0,4.0,89,0.00,,,0.00,23.000000,,2013-07-12 02:43:00,
2013-07-11 19:52:00,68.0,65.0,29.85,South,183,0.0,4.0,89,0.00,,,0.00,23.000000,,2013-07-12 02:52:00,
2013-07-11 20:02:00,68.0,65.0,29.85,South,183,0.0,3.0,89,0.00,,,0.00,14.000000,,2013-07-12 03:02:00,
2013-07-11 20:12:00,68.0,65.0,29.85,South,183,0.0,2.0,90,0.00,,,0.00,0.000000,,2013-07-12 03:12:00,
2013-07-11 20:22:00,68.0,65.0,29.85,South,183,0.0,2.0,90,0.00,,,0.00,0.000000,,2013-07-12 03:22:00,
2013-07-11 20:33:00,67.0,64.0,29.85,South,183,0.0,1.0,90,0.00,,,0.00,0.000000,,2013-07-12 03:33:00,
2013-07-11 20:43:00,67.0,64.0,29.85,West,260,1.0,2.0,90,0.00,,,0.00,0.000000,,2013-07-12 03:43:00,
2013-07-11 20:53:00,67.0,64.0,29.85,West,260,1.0,2.0,90,0.00,,,0.00,0.000000,,2013-07-12 03:53:00,
2013-07-11 21:01:00,67.0,64.0,29.85,West,260,0.0,2.0,90,0.00,,,0.00,0.000000,,2013-07-12 04:01:00,
2013-07-11 21:11:00,67.0,64.0,29.86,South,180,1.0,3.0,91,0.00,,,0.00,0.000000,,2013-07-12 04:11:00,
2013-07-11 21:21:00,67.0,64.0,29.86,South,180,1.0,3.0,91,0.00,,,0.00,0.000000,,2013-07-12 04:21:00,
2013-07-11 21:32:00,66.0,64.0,29.86,South,169,0.0,1.0,92,0.00,,,0.00,0.000000,,2013-07-12 04:32:00,
2013-07-11 21:43:00,66.0,64.0,29.87,South,169,0.0,1.0,93,0.00,,,0.00,0.000000,,2013-07-12 04:43:00,
2013-07-11 21:53:00,66.0,64.0,29.87,South,169,0.0,1.0,93,0.00,,,0.00,0.000000,,2013-07-12 04:53:00,
2013-07-11 22:02:00,66.0,64.0,29.87,South,169,0.0,1.0,93,0.00,,,0.00,0.000000,,2013-07-12 05:02:00,
2013-07-11 22:11:00,66.0,64.0,29.87,South,169,0.0,1.0,92,0.00,,,0.00,0.000000,,2013-07-12 05:11:00,
2013-07-11 22:22:00,66.0,64.0,29.87,South,169,0.0,1.0,92,0.00,,,0.00,0.000000,,2013-07-12 05:22:00,
2013-07-11 22:32:00,66.0,64.0,29.88,South,169,0.0,2.0,93,0.00,,,0.00,0.000000,,2013-07-12 05:32:00,
2013-07-11 22:53:00,66.0,64.0,29.88,South,176,0.0,4.0,94,0.00,,,0.00,0.000000,,2013-07-12 05:53:00,
2013-07-11 23:01:00,66.0,64.0,29.88,South,184,1.0,3.0,94,0.00,,,0.00,0.000000,,2013-07-12 06:01:00,
2013-07-11 23:11:00,66.0,64.0,29.88,South,184,1.0,3.0,94,0.00,,,0.00,0.000000,,2013-07-12 06:11:00,
2013-07-11 23:22:00,66.0,64.0,29.88,South,184,1.0,3.0,94,0.00,,,0.00,0.000000,,2013-07-12 06:22:00,
2013-07-11 23:32:00,66.0,64.0,29.88,SSE,161,0.0,3.0,94,0.00,,,0.00,0.000000,,2013-07-12 06:32:00,
2013-07-11 23:52:00,66.0,64.0,29.88,SW,229,1.0,4.0,94,0.00,,,0.00,0.000000,,2013-07-12 06:52:00,